Regional Weather Roundup
Issued by NWS

Home | Current Version | Previous Version | Text Only | Print | Product List | Glossary Off
Versions: 1 2 3 4 5 6 7 8 9 10 11 12 13 14 15 16 17 18 19 20 21 22 23 24 25 26 27 28 29 30 31 32 33 34 35 36 37 38 39 40 41 42 43 44 45 46 47 48 49 50

000
ASUS43 KLOT 170210
RWRIL

ILLINOIS REGIONAL WEATHER ROUNDUP
NATIONAL WEATHER SERVICE CHICAGO/ROMEOVILLE IL
900 PM CDT TUE SEP 16 2014

NOTE: "FAIR" INDICATES FEW OR NO CLOUDS BELOW 12,000 FEET WITH NO
SIGNIFICANT WEATHER AND/OR OBSTRUCTIONS TO VISIBILITY.

* THESE STATIONS ARE NOT UNDER NWS QUALITY CONTROL. THEY ALSO MAY NOT
  REPORT WEATHER SUCH AS PRECIPITATION OR FOG.

ILZ001-002-007-009-015-016-024-170300-
NORTHWEST ILLINOIS

CITY           SKY/WX    TMP DP  RH WIND       PRES   REMARKS
MOLINE         CLEAR     51  47  86 CALM      30.09S
STERLING*      CLEAR     48  43  81 CALM      30.09F
SAVANNA*       CLEAR     52  46  81 CALM      30.09S
$$

ILZ003-004-008-010-011-017-018-170300-
NORTH CENTRAL ILLINOIS

CITY           SKY/WX    TMP DP  RH WIND       PRES   REMARKS
ROCKFORD       CLEAR     53  46  77 CALM      30.12S
FREEPORT*      CLEAR     47  44  90 CALM      30.12S
ROCHELLE*      CLEAR     47  44  88 CALM      30.10F
DE KALB*       CLEAR     50  43  75 CALM      30.11S
PERU*          CLEAR     56  46  70 CALM      30.10F
$$

ILZ005-006-012>014-019>023-170300-
NORTHEAST ILLINOIS

CITY           SKY/WX    TMP DP  RH WIND       PRES   REMARKS
CHICAGO-OHARE  CLEAR     58  48  69 CALM      30.10S
CHICAGO-MIDWAY CLEAR     61  51  70 E7        30.10R
AURORA         CLEAR     50  44  80 CALM      30.10S
LANSING*       CLEAR     55  48  78 CALM      30.11R
JOLIET*        CLEAR     51  47  87 CALM      30.11S
WAUKEGAN       CLEAR     46  45  96 CALM      30.10R
DUPAGE AIRPORT CLEAR     52  45  77 CALM      30.09S
KANKAKEE*      CLEAR     51  49  93 CALM      30.11S
WHEELING       CLEAR     54  48  80 E3        30.11S
MORRIS*        CLEAR     55  48  77 NW3       30.10S
ROMEOVILLE*    CLEAR     53  45  75 CALM      30.10S
NORTHERLY ISL    N/A     58  50  75 NE2         N/A
$$

LMZ740>746-170300-
SOUTHERN LAKE MICHIGAN

STATION/POSITION SKY/WX   TEMP    WIND        PRES    VSBY  WAVE
                          AIR SEA DIR/SP/G                  HT/PER
                          (F)     (DEG/KT/KT) (MB)    (MI)  (FT/S)
SOUTHERN BUOY              59 64  180/  4/  6 1019.6S         1
WAUKEGAN HARBOR            59     160/  6/  7   N/A
HARRISON CRIB              60      90/  6/  7   N/A
BURNHAM HARBOR             57      CALM  /  5   N/A
CALUMET HARBOR             60      60/  3/  4 1018.0F
MICHIGAN CITY              58      70/  7/  8   N/A
MICHIGAN CITY 6N           60 65  100/  8/  8   N/A           1/ 5
ST. JOSEPH                 60 66   80/  6/  8   N/A           1/ 4
$$

ILZ025>027-034>036-040-047-049-050-058-095>099-170300-
WEST-CENTRAL ILLINOIS

CITY           SKY/WX    TMP DP  RH WIND       PRES   REMARKS
QUINCY         CLEAR     59  49  69 SE3       30.08S
GALESBURG*     CLEAR     49  46  87 E3        30.09S
MACOMB*        CLEAR     49  47  94 CALM      30.11S
JACKSONVILLE*  CLEAR     56  52  85 CALM      30.12R
PITTSFIELD*    CLEAR     55  51  86 S3        30.10F
$$

ILZ028>032-037-038-041>044-048-051>054-059>061-170300-
CENTRAL ILLINOIS

CITY           SKY/WX    TMP DP  RH WIND       PRES   REMARKS
PONTIAC        CLEAR     52  50  93 CALM      30.10S
DECATUR        CLEAR     57  50  77 W5        30.11R
PEORIA         CLEAR     54  49  83 CALM      30.10S
LACON*         CLEAR     49  46  87 CALM      30.09F
LINCOLN*       CLEAR     55  50  85 NW3       30.08S
SPRINGFIELD    CLEAR     53  49  86 CALM      30.11R
TAYLORVILLE    CLEAR     50  48  93 S5        30.11R
$$

ILZ033-039-045-046-055>057-062-063-170300-
EAST-CENTRAL ILLINOIS

CITY           SKY/WX    TMP DP  RH WIND       PRES   REMARKS
CHAMPAIGN      CLEAR     51  47  86 S5        30.10S
DANVILLE*      CLEAR     49  48  95 CALM      30.08S
RANTOUL*       CLEAR     56  47  71 CALM      30.11S
MATTOON        MOCLDY    57  51  80 SW5       30.10R
PARIS*         CLEAR     49  48  99 CALM      30.11S
$$

ILZ079-100>102-170300-
SOUTHWEST ILLINOIS

CITY           SKY/WX    TMP DP  RH WIND       PRES   REMARKS
BELLEVILLE     PTCLDY    56  55  95 CALM      30.10S
CAHOKIA*       CLEAR     53  52  96 CALM      30.11R
SPARTA*        CLEAR     51  49  95 CALM      30.11S
$$

ILZ064>066-069>071-074>076-080>082-084>086-088>090-092>094-170300-
SOUTH-CENTRAL ILLINOIS

CITY           SKY/WX    TMP DP  RH WIND       PRES   REMARKS
CARBONDALE     CLEAR     51  49  92 E3        30.11S
CAIRO*         CLEAR     56  51  84 NE3       30.10S
EFFINGHAM*     CLEAR     52  49  90 CALM      30.11S
MARION         CLEAR     54  52  94 CALM      30.12S
MT. VERNON     PTCLDY    54  48  82 CALM      30.12S
CENTRALIA*     MOCLDY    56  52  87 CALM      30.11S
SALEM*         PTCLDY    58  56  93 SE3       30.12S
METROPOLIS*    CLEAR     55  52  91 CALM      30.10S
$$

ILZ067-068-072-073-078-083-087-091-170300-
SOUTHEAST ILLINOIS

CITY           SKY/WX    TMP DP  RH WIND       PRES   REMARKS
LAWRENCEVILLE  CLEAR     52  50  93 CALM      30.11S
FLORA*         CLEAR     50  49  95 CALM      30.12S
FAIRFIELD*     CLEAR    N/A N/A N/A CALM      30.12R FOG
HARRISBURG*    CLEAR     53  51  95 CALM      30.12S
ROBINSON*      CLEAR     52  51  97 CALM      30.12R
CARMI*         CLEAR     54  52  95 W3        30.11S
$$

ABBREVIATIONS USED IN REMARKS
   TC - TEMPERATURE IN CELSIUS
  WCI - WIND CHILL INDEX
   HX - HEAT INDEX
  VSB - VISIBILITY
$$



USA.gov is the U.S. government's official web portal to all federal, state and local government web resources and services.